Location: Marcé
(47.5801°N, 0.3280°W)
Time: 15:28:30
(UTC+01:00)

SR - Pass Details

Date: 08 December 2021
Orbit: 582 x 872 km, 66.7° (Epoch: 22 January)

Event Time Altitude Azimuth Distance (km) Brightness Sun altitude
Rises 22:09:35 0° 171° (S) 2,975 - -49.1°
Reaches altitude 10° 22:12:32 10° 152° (SSE) 2,018 - -49.5°
Maximum altitude 22:15:33 18° 110° (ESE) 1,531 - -50.0°
Drops below altitude 10° 22:18:29 10° 68° (ENE) 1,948 - -50.5°
Sets 22:21:16 0° 49° (NE) 2,831 - -50.9°
